Time,TemperatureF,DewpointF,PressureIn,WindDirection,WindDirectionDegrees,WindSpeedMPH,WindSpeedGustMPH,Humidity,HourlyPrecipIn,Conditions,Clouds,dailyrainin,SoftwareType,DateUTC
2013-03-06 00:00:00,34.3,25.5,29.87,SE,146,0.0,2.0,70,0.00,,---,0.00,VWS V13.01,2013-03-06 05:00:00,
2013-03-06 00:05:00,34.3,25.5,29.87,SE,146,0.0,2.0,70,0.00,,---,0.00,VWS V13.01,2013-03-06 05:05:00,
2013-03-06 00:10:00,34.1,25.7,29.87,SE,146,0.0,2.0,71,0.00,,---,0.00,VWS V13.01,2013-03-06 05:10:00,
2013-03-06 00:15:00,34.1,25.7,29.87,SE,146,1.0,2.0,71,0.00,,---,0.00,VWS V13.01,2013-03-06 05:15:00,
2013-03-06 00:20:00,34.3,25.9,29.87,SE,146,1.0,3.0,71,0.00,,---,0.00,VWS V13.01,2013-03-06 05:20:00,
2013-03-06 00:25:00,34.3,25.9,29.87,SE,146,0.0,3.0,71,0.00,,---,0.00,VWS V13.01,2013-03-06 05:25:00,
2013-03-06 00:30:00,34.3,25.5,29.87,SE,146,0.0,2.0,70,0.00,,---,0.00,VWS V13.01,2013-03-06 05:30:00,
2013-03-06 00:35:00,34.3,25.9,29.87,SE,144,1.0,3.0,71,0.00,,---,0.00,VWS V13.01,2013-03-06 05:35:00,
2013-03-06 00:40:00,34.3,25.9,29.87,SE,144,0.0,3.0,71,0.00,,---,0.00,VWS V13.01,2013-03-06 05:40:00,
2013-03-06 00:45:00,34.4,26.0,29.87,SE,144,0.0,3.0,71,0.00,,---,0.00,VWS V13.01,2013-03-06 05:45:00,
2013-03-06 00:50:00,34.4,26.0,29.87,SE,144,0.0,3.0,71,0.00,,---,0.00,VWS V13.01,2013-03-06 05:50:00,
2013-03-06 00:55:00,34.4,26.0,29.87,SE,144,2.0,3.0,71,0.00,,---,0.00,VWS V13.01,2013-03-06 05:55:00,
2013-03-06 01:00:00,34.6,26.2,29.86,SE,142,0.0,4.0,71,0.00,,---,0.00,VWS V13.01,2013-03-06 06:00:00,
2013-03-06 01:05:00,34.7,26.3,29.86,SE,142,0.0,4.0,71,0.00,,---,0.00,VWS V13.01,2013-03-06 06:05:00,
2013-03-06 01:10:00,34.9,26.5,29.86,SE,142,0.0,4.0,71,0.00,,---,0.00,VWS V13.01,2013-03-06 06:10:00,
2013-03-06 01:15:00,34.7,26.3,29.86,SE,142,0.0,3.0,71,0.00,,---,0.00,VWS V13.01,2013-03-06 06:15:00,
2013-03-06 01:20:00,34.7,26.3,29.86,SE,141,2.0,4.0,71,0.00,,---,0.00,VWS V13.01,2013-03-06 06:20:00,
2013-03-06 01:25:00,34.6,26.2,29.86,SE,141,2.0,4.0,71,0.00,,---,0.00,VWS V13.01,2013-03-06 06:25:00,
2013-03-06 01:30:00,34.4,26.3,29.86,SE,141,2.0,3.0,72,0.00,,---,0.00,VWS V13.01,2013-03-06 06:30:00,
2013-03-06 01:35:00,34.3,26.2,29.86,SE,141,0.0,3.0,72,0.00,,---,0.00,VWS V13.01,2013-03-06 06:35:00,
2013-03-06 01:40:00,34.1,26.0,29.86,SE,141,0.0,3.0,72,0.00,,---,0.00,VWS V13.01,2013-03-06 06:40:00,
2013-03-06 01:45:00,34.1,26.0,29.85,SE,141,0.0,1.0,72,0.00,,---,0.00,VWS V13.01,2013-03-06 06:45:00,
2013-03-06 01:50:00,34.1,26.4,29.85,SE,141,0.0,1.0,73,0.00,,---,0.00,VWS V13.01,2013-03-06 06:50:00,
2013-03-06 01:55:00,34.1,26.4,29.85,SE,141,2.0,3.0,73,0.00,,---,0.00,VWS V13.01,2013-03-06 06:55:00,
2013-03-06 02:00:00,34.3,26.6,29.83,SE,136,0.0,3.0,73,0.00,,---,0.00,VWS V13.01,2013-03-06 07:00:00,
2013-03-06 02:05:00,34.3,26.6,29.83,SE,129,1.0,4.0,73,0.00,,---,0.00,VWS V13.01,2013-03-06 07:05:00,
2013-03-06 02:10:00,34.4,27.0,29.83,SE,128,0.0,4.0,74,0.00,,---,0.00,VWS V13.01,2013-03-06 07:10:00,
2013-03-06 02:15:00,34.4,27.0,29.82,SE,128,0.0,3.0,74,0.00,,---,0.00,VWS V13.01,2013-03-06 07:15:00,
2013-03-06 02:20:00,34.4,27.3,29.82,SE,128,3.0,4.0,75,0.00,,---,0.00,VWS V13.01,2013-03-06 07:20:00,
2013-03-06 02:25:00,34.7,27.6,29.82,ESE,109,1.0,4.0,75,0.00,,---,0.00,VWS V13.01,2013-03-06 07:25:00,
2013-03-06 02:30:00,34.9,28.1,29.81,ESE,107,0.0,5.0,76,0.00,,---,0.00,VWS V13.01,2013-03-06 07:30:00,
2013-03-06 02:35:00,34.9,28.1,29.81,ESE,107,2.0,5.0,76,0.00,,---,0.00,VWS V13.01,2013-03-06 07:35:00,
2013-03-06 02:40:00,35.0,28.2,29.81,ESE,106,2.0,5.0,76,0.00,,---,0.00,VWS V13.01,2013-03-06 07:40:00,
2013-03-06 02:45:00,35.0,28.5,29.81,ESE,106,2.0,3.0,77,0.00,,---,0.00,VWS V13.01,2013-03-06 07:45:00,
2013-03-06 02:50:00,35.0,28.5,29.81,ESE,106,1.0,4.0,77,0.00,,---,0.00,VWS V13.01,2013-03-06 07:50:00,
2013-03-06 02:55:00,35.0,28.5,29.81,ESE,106,0.0,4.0,77,0.00,,---,0.00,VWS V13.01,2013-03-06 07:55:00,
2013-03-06 03:00:00,35.0,28.5,29.80,ESE,106,2.0,2.0,77,0.00,,---,0.00,VWS V13.01,2013-03-06 08:00:00,
2013-03-06 03:05:00,35.0,28.9,29.80,East,98,3.0,4.0,78,0.00,,---,0.00,VWS V13.01,2013-03-06 08:05:00,
2013-03-06 03:10:00,35.2,29.0,29.80,East,98,0.0,4.0,78,0.00,,---,0.00,VWS V13.01,2013-03-06 08:10:00,
2013-03-06 03:15:00,35.2,29.4,29.79,East,98,0.0,4.0,79,0.00,,---,0.00,VWS V13.01,2013-03-06 08:15:00,
2013-03-06 03:20:00,35.3,29.8,29.79,East,97,0.0,4.0,80,0.00,,---,0.00,VWS V13.01,2013-03-06 08:20:00,
2013-03-06 03:25:00,35.8,30.2,29.79,East,98,2.0,7.0,80,0.00,,---,0.00,VWS V13.01,2013-03-06 08:25:00,
2013-03-06 03:30:00,36.3,31.0,29.79,ESE,102,4.0,7.0,81,0.00,,---,0.00,VWS V13.01,2013-03-06 08:30:00,
2013-03-06 03:35:00,36.9,31.3,29.79,ESE,105,2.0,10.0,80,0.00,,---,0.00,VWS V13.01,2013-03-06 08:35:00,
2013-03-06 03:40:00,37.3,31.7,29.79,East,89,10.0,14.0,80,0.00,,---,0.00,VWS V13.01,2013-03-06 08:40:00,
2013-03-06 03:45:00,37.8,31.9,29.78,East,88,3.0,9.0,79,0.00,,---,0.00,VWS V13.01,2013-03-06 08:45:00,
2013-03-06 03:50:00,38.2,32.3,29.78,East,101,5.0,16.0,79,0.00,,---,0.00,VWS V13.01,2013-03-06 08:50:00,
2013-03-06 03:55:00,38.3,32.0,29.78,ESE,105,3.0,16.0,78,0.00,,---,0.00,VWS V13.01,2013-03-06 08:55:00,
2013-03-06 04:00:00,38.5,31.9,29.78,SE,130,16.0,18.0,77,0.00,,---,0.00,VWS V13.01,2013-03-06 09:00:00,
2013-03-06 04:05:00,38.6,32.0,29.78,ESE,119,10.0,18.0,77,0.00,,---,0.00,VWS V13.01,2013-03-06 09:05:00,
2013-03-06 04:10:00,38.8,31.6,29.78,ESE,111,9.0,23.0,75,0.00,,---,0.00,VWS V13.01,2013-03-06 09:10:00,
2013-03-06 04:15:00,38.6,31.4,29.78,ESE,104,5.0,21.0,75,0.00,,---,0.00,VWS V13.01,2013-03-06 09:15:00,
2013-03-06 04:20:00,38.6,31.4,29.78,SE,133,12.0,21.0,75,0.00,,---,0.00,VWS V13.01,2013-03-06 09:20:00,
2013-03-06 04:25:00,38.6,31.0,29.78,ESE,105,5.0,21.0,74,0.00,,---,0.00,VWS V13.01,2013-03-06 09:25:00,
2013-03-06 04:30:00,38.6,31.4,29.77,ENE,70,11.0,18.0,75,0.00,,---,0.00,VWS V13.01,2013-03-06 09:30:00,
2013-03-06 04:35:00,38.5,31.0,29.77,East,94,12.0,18.0,74,0.00,,---,0.00,VWS V13.01,2013-03-06 09:35:00,
2013-03-06 04:40:00,38.5,30.6,29.77,East,96,8.0,20.0,73,0.00,,---,0.00,VWS V13.01,2013-03-06 09:40:00,
2013-03-06 04:45:00,38.5,30.6,29.77,ESE,103,14.0,17.0,73,0.00,,---,0.00,VWS V13.01,2013-03-06 09:45:00,
2013-03-06 04:50:00,38.5,30.6,29.77,ENE,72,13.0,18.0,73,0.00,,---,0.00,VWS V13.01,2013-03-06 09:50:00,
2013-03-06 04:55:00,38.6,30.7,29.77,East,94,15.0,21.0,73,0.00,,---,0.00,VWS V13.01,2013-03-06 09:55:00,
2013-03-06 05:00:00,38.6,30.7,29.77,SE,136,6.0,22.0,73,0.00,,---,0.00,VWS V13.01,2013-03-06 10:00:00,
2013-03-06 05:05:00,38.5,30.6,29.77,ESE,115,12.0,22.0,73,0.00,,---,0.00,VWS V13.01,2013-03-06 10:05:00,
2013-03-06 05:10:00,38.5,30.6,29.77,ESE,116,11.0,22.0,73,0.00,,---,0.00,VWS V13.01,2013-03-06 10:10:00,
2013-03-06 05:15:00,38.5,30.6,29.76,ESE,110,14.0,18.0,73,0.00,,---,0.00,VWS V13.01,2013-03-06 10:15:00,
2013-03-06 05:20:00,38.5,30.6,29.76,East,100,16.0,18.0,73,0.00,,---,0.00,VWS V13.01,2013-03-06 10:20:00,
2013-03-06 05:25:00,38.5,30.6,29.76,ESE,103,17.0,27.0,73,0.00,,---,0.00,VWS V13.01,2013-03-06 10:25:00,
2013-03-06 05:30:00,38.5,30.6,29.76,East,92,15.0,28.0,73,0.00,,---,0.00,VWS V13.01,2013-03-06 10:30:00,
2013-03-06 05:35:00,38.5,30.6,29.76,ESE,113,12.0,28.0,73,0.00,,---,0.00,VWS V13.01,2013-03-06 10:35:00,
2013-03-06 05:40:00,38.3,30.8,29.76,ESE,103,11.0,28.0,74,0.00,,---,0.00,VWS V13.01,2013-03-06 10:40:00,
2013-03-06 05:45:00,38.3,30.8,29.76,SE,144,13.0,23.0,74,0.00,,---,0.00,VWS V13.01,2013-03-06 10:45:00,
2013-03-06 05:50:00,38.3,31.1,29.76,SE,146,6.0,23.0,75,0.00,,---,0.00,VWS V13.01,2013-03-06 10:50:00,
2013-03-06 05:55:00,38.0,31.4,29.76,ESE,109,13.0,23.0,77,0.00,,---,0.00,VWS V13.01,2013-03-06 10:55:00,
2013-03-06 06:00:00,37.9,31.4,29.76,ESE,106,13.0,18.0,77,0.00,,---,0.00,VWS V13.01,2013-03-06 11:00:00,
2013-03-06 06:05:00,37.9,31.4,29.76,East,96,14.0,20.0,77,0.00,,---,0.00,VWS V13.01,2013-03-06 11:05:00,
2013-03-06 06:10:00,38.0,31.4,29.76,East,94,11.0,20.0,77,0.00,,---,0.00,VWS V13.01,2013-03-06 11:10:00,
2013-03-06 06:15:00,38.0,31.1,29.76,ENE,74,8.0,17.0,76,0.00,,---,0.00,VWS V13.01,2013-03-06 11:15:00,
2013-03-06 06:20:00,38.0,31.1,29.76,East,96,10.0,21.0,76,0.00,,---,0.00,VWS V13.01,2013-03-06 11:20:00,
2013-03-06 06:25:00,37.9,31.4,29.76,ESE,113,6.0,21.0,77,0.00,,---,0.00,VWS V13.01,2013-03-06 11:25:00,
2013-03-06 06:30:00,37.6,31.4,29.76,ESE,105,15.0,23.0,78,0.00,,---,0.00,VWS V13.01,2013-03-06 11:30:00,
2013-03-06 06:35:00,37.5,31.6,29.76,East,95,6.0,23.0,79,0.00,,---,0.00,VWS V13.01,2013-03-06 11:35:00,
2013-03-06 06:40:00,37.5,31.6,29.76,ENE,78,6.0,23.0,79,0.00,,---,0.00,VWS V13.01,2013-03-06 11:40:00,
2013-03-06 06:45:00,37.5,31.9,29.76,ESE,110,7.0,22.0,80,0.00,,---,0.00,VWS V13.01,2013-03-06 11:45:00,
2013-03-06 06:50:00,37.5,31.6,29.76,ESE,117,10.0,22.0,79,0.00,,---,0.00,VWS V13.01,2013-03-06 11:50:00,
2013-03-06 06:55:00,37.8,31.2,29.76,East,98,14.0,22.0,77,0.00,,---,0.00,VWS V13.01,2013-03-06 11:55:00,
2013-03-06 07:00:00,38.0,30.8,29.75,ESE,103,13.0,19.0,75,0.00,,---,0.00,VWS V13.01,2013-03-06 12:00:00,
2013-03-06 07:05:00,38.3,30.8,29.75,SE,146,18.0,20.0,74,0.00,,---,0.00,VWS V13.01,2013-03-06 12:05:00,
2013-03-06 07:10:00,38.5,30.6,29.75,East,98,8.0,20.0,73,0.00,,---,0.00,VWS V13.01,2013-03-06 12:10:00,
2013-03-06 07:15:00,38.5,30.6,29.75,East,88,17.0,20.0,73,0.00,,---,0.00,VWS V13.01,2013-03-06 12:15:00,
2013-03-06 07:20:00,38.6,30.7,29.75,ESE,119,9.0,21.0,73,0.00,,---,0.00,VWS V13.01,2013-03-06 12:20:00,
2013-03-06 07:25:00,38.6,30.7,29.75,ENE,59,6.0,21.0,73,0.00,,---,0.00,VWS V13.01,2013-03-06 12:25:00,
2013-03-06 07:30:00,38.8,30.6,29.76,ESE,106,10.0,20.0,72,0.00,,---,0.00,VWS V13.01,2013-03-06 12:30:00,
2013-03-06 07:35:00,38.9,30.7,29.76,East,101,9.0,20.0,72,0.00,,---,0.00,VWS V13.01,2013-03-06 12:35:00,
2013-03-06 07:40:00,38.9,30.3,29.76,ESE,116,10.0,20.0,71,0.00,,---,0.00,VWS V13.01,2013-03-06 12:40:00,
2013-03-06 07:45:00,38.9,30.3,29.77,SE,135,19.0,22.0,71,0.00,,---,0.00,VWS V13.01,2013-03-06 12:45:00,
2013-03-06 07:50:00,39.1,30.2,29.77,East,86,12.0,22.0,70,0.00,,---,0.00,VWS V13.01,2013-03-06 12:50:00,
2013-03-06 07:55:00,39.2,29.9,29.77,SE,142,12.0,24.0,69,0.00,,---,0.00,VWS V13.01,2013-03-06 12:55:00,
2013-03-06 08:00:00,39.2,29.9,29.77,ESE,103,10.0,19.0,69,0.00,,---,0.00,VWS V13.01,2013-03-06 13:00:00,
2013-03-06 08:05:00,39.2,30.2,29.77,SE,135,7.0,19.0,70,0.00,,---,0.00,VWS V13.01,2013-03-06 13:05:00,
2013-03-06 08:10:00,39.3,30.0,29.77,SE,132,9.0,19.0,69,0.00,,---,0.00,VWS V13.01,2013-03-06 13:10:00,
2013-03-06 08:15:00,39.3,30.4,29.77,ESE,105,9.0,13.0,70,0.00,,---,0.00,VWS V13.01,2013-03-06 13:15:00,
2013-03-06 08:20:00,39.3,30.4,29.77,East,96,10.0,21.0,70,0.00,,---,0.00,VWS V13.01,2013-03-06 13:20:00,
2013-03-06 08:25:00,39.3,30.4,29.77,ESE,113,9.0,21.0,70,0.00,,---,0.00,VWS V13.01,2013-03-06 13:25:00,
2013-03-06 08:30:00,39.3,30.4,29.77,SE,137,4.0,16.0,70,0.00,,---,0.00,VWS V13.01,2013-03-06 13:30:00,
2013-03-06 08:35:00,39.5,30.5,29.77,East,94,7.0,17.0,70,0.00,,---,0.00,VWS V13.01,2013-03-06 13:35:00,
2013-03-06 08:40:00,39.3,30.7,29.77,East,93,17.0,24.0,71,0.00,,---,0.00,VWS V13.01,2013-03-06 13:40:00,
2013-03-06 08:45:00,39.2,31.0,29.76,ESE,105,7.0,15.0,72,0.00,,---,0.00,VWS V13.01,2013-03-06 13:45:00,
2013-03-06 08:50:00,39.2,31.0,29.76,ENE,74,10.0,19.0,72,0.00,,---,0.00,VWS V13.01,2013-03-06 13:50:00,
2013-03-06 08:55:00,39.2,31.0,29.76,East,83,6.0,20.0,72,0.00,,---,0.00,VWS V13.01,2013-03-06 13:55:00,
2013-03-06 09:00:00,39.2,31.0,29.76,East,95,3.0,12.0,72,0.00,,---,0.00,VWS V13.01,2013-03-06 14:00:00,
2013-03-06 09:05:00,39.2,31.0,29.76,East,88,8.0,20.0,72,0.00,,---,0.00,VWS V13.01,2013-03-06 14:05:00,
2013-03-06 09:10:00,39.2,31.0,29.76,ESE,102,11.0,20.0,72,0.00,,---,0.00,VWS V13.01,2013-03-06 14:10:00,
2013-03-06 09:15:00,39.2,31.0,29.76,ESE,108,18.0,25.0,72,0.00,,---,0.00,VWS V13.01,2013-03-06 14:15:00,
2013-03-06 09:20:00,39.3,31.0,29.76,ENE,76,15.0,25.0,72,0.00,,---,0.00,VWS V13.01,2013-03-06 14:20:00,
2013-03-06 09:25:00,39.3,31.0,29.76,East,85,5.0,25.0,72,0.00,,---,0.00,VWS V13.01,2013-03-06 14:25:00,
2013-03-06 09:30:00,39.3,31.0,29.76,ESE,119,16.0,19.0,72,0.00,,---,0.00,VWS V13.01,2013-03-06 14:30:00,
2013-03-06 09:35:00,39.3,31.0,29.76,East,86,7.0,20.0,72,0.00,,---,0.00,VWS V13.01,2013-03-06 14:35:00,
2013-03-06 09:40:00,39.3,31.4,29.76,SSE,150,13.0,25.0,73,0.00,,---,0.00,VWS V13.01,2013-03-06 14:40:00,
2013-03-06 09:45:00,39.5,31.2,29.75,ESE,106,6.0,16.0,72,0.00,,---,0.00,VWS V13.01,2013-03-06 14:45:00,
2013-03-06 09:50:00,39.5,31.2,29.75,ESE,108,16.0,24.0,72,0.00,,---,0.00,VWS V13.01,2013-03-06 14:50:00,
2013-03-06 09:55:00,39.5,31.2,29.75,East,94,11.0,24.0,72,0.00,,---,0.00,VWS V13.01,2013-03-06 14:55:00,
2013-03-06 10:00:00,39.5,31.2,29.75,ESE,105,10.0,19.0,72,0.00,,---,0.00,VWS V13.01,2013-03-06 15:00:00,
2013-03-06 10:05:00,39.5,31.2,29.75,ESE,105,12.0,20.0,72,0.00,,---,0.00,VWS V13.01,2013-03-06 15:05:00,
2013-03-06 10:10:00,39.5,31.6,29.75,ESE,105,13.0,23.0,73,0.00,,---,0.00,VWS V13.01,2013-03-06 15:10:00,
2013-03-06 10:15:00,39.5,31.6,29.75,East,88,12.0,19.0,73,0.00,,---,0.00,VWS V13.01,2013-03-06 15:15:00,
2013-03-06 10:20:00,39.5,31.2,29.75,East,101,5.0,19.0,72,0.00,,---,0.00,VWS V13.01,2013-03-06 15:20:00,
2013-03-06 10:25:00,39.5,31.2,29.75,ESE,109,9.0,19.0,72,0.00,,---,0.00,VWS V13.01,2013-03-06 15:25:00,
2013-03-06 10:30:00,39.6,31.3,29.75,East,96,6.0,19.0,72,0.00,,---,0.00,VWS V13.01,2013-03-06 15:30:00,
2013-03-06 10:35:00,39.6,31.3,29.75,ESE,104,9.0,19.0,72,0.00,,---,0.00,VWS V13.01,2013-03-06 15:35:00,
2013-03-06 10:40:00,39.6,31.3,29.75,East,90,6.0,19.0,72,0.00,,---,0.00,VWS V13.01,2013-03-06 15:40:00,
2013-03-06 10:45:00,39.8,31.5,29.75,East,79,10.0,18.0,72,0.00,,---,0.00,VWS V13.01,2013-03-06 15:45:00,
2013-03-06 10:50:00,39.8,31.5,29.75,ESE,105,14.0,22.0,72,0.00,,---,0.00,VWS V13.01,2013-03-06 15:50:00,
2013-03-06 10:55:00,39.6,31.7,29.75,ENE,76,5.0,22.0,73,0.00,,---,0.00,VWS V13.01,2013-03-06 15:55:00,
2013-03-06 11:00:00,39.5,31.9,29.75,ENE,70,14.0,19.0,74,0.00,,---,0.00,VWS V13.01,2013-03-06 16:00:00,
2013-03-06 11:05:00,39.2,32.6,29.75,ESE,113,5.0,19.0,77,0.00,,---,0.00,VWS V13.01,2013-03-06 16:05:00,
2013-03-06 11:10:00,38.9,33.0,29.75,East,90,12.0,23.0,79,0.00,,---,0.00,VWS V13.01,2013-03-06 16:10:00,
2013-03-06 11:15:00,38.6,33.3,29.75,East,101,10.0,19.0,81,0.00,,---,0.00,VWS V13.01,2013-03-06 16:15:00,
2013-03-06 11:20:00,38.6,33.6,29.75,East,82,6.0,21.0,82,0.00,,---,0.00,VWS V13.01,2013-03-06 16:20:00,
2013-03-06 11:25:00,38.6,33.6,29.75,East,99,14.0,21.0,82,0.00,,---,0.00,VWS V13.01,2013-03-06 16:25:00,
2013-03-06 11:30:00,38.6,33.6,29.75,NE,36,10.0,17.0,82,0.00,,---,0.00,VWS V13.01,2013-03-06 16:30:00,
2013-03-06 11:35:00,38.8,33.5,29.75,East,84,9.0,20.0,81,0.00,,---,0.00,VWS V13.01,2013-03-06 16:35:00,
2013-03-06 11:40:00,38.8,33.5,29.75,ENE,77,5.0,20.0,81,0.00,,---,0.00,VWS V13.01,2013-03-06 16:40:00,
2013-03-06 11:45:00,38.8,33.5,29.75,East,89,10.0,18.0,81,0.00,,---,0.00,VWS V13.01,2013-03-06 16:45:00,
2013-03-06 11:50:00,38.8,33.8,29.75,ENE,76,11.0,18.0,82,0.00,,---,0.00,VWS V13.01,2013-03-06 16:50:00,
2013-03-06 11:55:00,38.8,33.8,29.75,ENE,76,11.0,19.0,82,0.00,,---,0.00,VWS V13.01,2013-03-06 16:55:00,
2013-03-06 12:00:00,38.8,33.8,29.74,SE,124,6.0,15.0,82,0.00,,---,0.00,VWS V13.01,2013-03-06 17:00:00,
2013-03-06 12:05:00,38.9,33.9,29.74,ENE,72,13.0,15.0,82,0.00,,---,0.00,VWS V13.01,2013-03-06 17:05:00,
2013-03-06 12:10:00,39.2,33.6,29.74,ENE,57,7.0,19.0,80,0.00,,---,0.00,VWS V13.01,2013-03-06 17:10:00,
2013-03-06 12:15:00,39.3,33.3,29.74,East,92,9.0,16.0,79,0.00,,---,0.00,VWS V13.01,2013-03-06 17:15:00,
2013-03-06 12:20:00,39.5,33.5,29.74,ENE,63,4.0,16.0,79,0.00,,---,0.00,VWS V13.01,2013-03-06 17:20:00,
2013-03-06 12:25:00,39.6,33.3,29.74,ENE,78,11.0,19.0,78,0.00,,---,0.00,VWS V13.01,2013-03-06 17:25:00,
2013-03-06 12:30:00,39.8,33.2,29.74,ENE,71,11.0,16.0,77,0.00,,---,0.00,VWS V13.01,2013-03-06 17:30:00,
2013-03-06 12:35:00,39.6,33.6,29.74,East,83,7.0,16.0,79,0.00,,---,0.00,VWS V13.01,2013-03-06 17:35:00,
2013-03-06 12:40:00,39.8,33.5,29.74,NE,40,12.0,20.0,78,0.00,,---,0.00,VWS V13.01,2013-03-06 17:40:00,
2013-03-06 12:45:00,39.8,33.5,29.74,East,92,17.0,20.0,78,0.00,,---,0.00,VWS V13.01,2013-03-06 17:45:00,
2013-03-06 12:50:00,39.5,33.8,29.74,East,86,11.0,21.0,80,0.00,,---,0.00,VWS V13.01,2013-03-06 17:50:00,
2013-03-06 12:55:00,39.3,33.7,29.74,ENE,78,9.0,22.0,80,0.00,,---,0.00,VWS V13.01,2013-03-06 17:55:00,
2013-03-06 13:00:00,39.2,33.9,29.73,ENE,75,8.0,20.0,81,0.00,,---,0.00,VWS V13.01,2013-03-06 18:00:00,
2013-03-06 13:05:00,39.3,33.7,29.73,East,88,9.0,22.0,80,0.00,,---,0.00,VWS V13.01,2013-03-06 18:05:00,
2013-03-06 13:10:00,39.6,33.6,29.73,ENE,77,11.0,22.0,79,0.00,,---,0.00,VWS V13.01,2013-03-06 18:10:00,
2013-03-06 13:15:00,39.9,33.3,29.73,ESE,107,6.0,22.0,77,0.00,,---,0.00,VWS V13.01,2013-03-06 18:15:00,
2013-03-06 13:20:00,40.1,33.5,29.73,East,92,11.0,22.0,77,0.00,,---,0.00,VWS V13.01,2013-03-06 18:20:00,
2013-03-06 13:25:00,40.1,32.8,29.73,East,92,7.0,22.0,75,0.00,,---,0.00,VWS V13.01,2013-03-06 18:25:00,
2013-03-06 13:30:00,40.2,32.2,29.73,East,91,14.0,26.0,73,0.00,,---,0.00,VWS V13.01,2013-03-06 18:30:00,
2013-03-06 13:35:00,40.5,31.5,29.73,ESE,116,10.0,27.0,70,0.00,,---,0.00,VWS V13.01,2013-03-06 18:35:00,
2013-03-06 13:40:00,40.6,31.6,29.73,ENE,60,6.0,28.0,70,0.00,,---,0.00,VWS V13.01,2013-03-06 18:40:00,
2013-03-06 13:45:00,40.6,30.9,29.72,ESE,111,21.0,23.0,68,0.00,,---,0.00,VWS V13.01,2013-03-06 18:45:00,
2013-03-06 13:50:00,40.8,30.7,29.72,ESE,123,14.0,32.0,67,0.00,,---,0.00,VWS V13.01,2013-03-06 18:50:00,
2013-03-06 13:55:00,40.9,30.1,29.72,ESE,103,6.0,32.0,65,0.00,,---,0.00,VWS V13.01,2013-03-06 18:55:00,
2013-03-06 14:00:00,40.9,30.1,29.72,SSE,153,9.0,21.0,65,0.00,,---,0.00,VWS V13.01,2013-03-06 19:00:00,
2013-03-06 14:05:00,41.1,29.9,29.72,East,92,15.0,27.0,64,0.00,,---,0.00,VWS V13.01,2013-03-06 19:05:00,
2013-03-06 14:10:00,41.2,29.2,29.72,East,93,7.0,27.0,62,0.00,,---,0.00,VWS V13.01,2013-03-06 19:10:00,
2013-03-06 14:15:00,41.3,28.9,29.72,ENE,77,13.0,26.0,61,0.00,,---,0.00,VWS V13.01,2013-03-06 19:15:00,
2013-03-06 14:20:00,41.5,29.5,29.72,ESE,123,14.0,28.0,62,0.00,,---,0.00,VWS V13.01,2013-03-06 19:20:00,
2013-03-06 14:25:00,41.6,29.6,29.72,East,79,12.0,28.0,62,0.00,,---,0.00,VWS V13.01,2013-03-06 19:25:00,
2013-03-06 14:30:00,41.6,29.6,29.72,East,90,17.0,28.0,62,0.00,,---,0.00,VWS V13.01,2013-03-06 19:30:00,
2013-03-06 14:35:00,41.5,30.2,29.72,East,96,19.0,28.0,64,0.00,,---,0.00,VWS V13.01,2013-03-06 19:35:00,
2013-03-06 14:40:00,41.2,29.6,29.72,ESE,106,11.0,31.0,63,0.00,,---,0.00,VWS V13.01,2013-03-06 19:40:00,
2013-03-06 14:45:00,41.2,29.2,29.73,ENE,76,9.0,23.0,62,0.00,,---,0.00,VWS V13.01,2013-03-06 19:45:00,
2013-03-06 14:50:00,41.5,28.7,29.73,East,79,19.0,26.0,60,0.00,,---,0.00,VWS V13.01,2013-03-06 19:50:00,
2013-03-06 14:55:00,41.5,28.3,29.73,SE,126,15.0,26.0,59,0.00,,---,0.00,VWS V13.01,2013-03-06 19:55:00,
2013-03-06 15:00:00,41.5,28.7,29.73,ENE,69,22.0,27.0,60,0.00,,---,0.00,VWS V13.01,2013-03-06 20:00:00,
2013-03-06 15:05:00,41.3,28.9,29.73,East,84,14.0,27.0,61,0.00,,---,0.00,VWS V13.01,2013-03-06 20:05:00,
2013-03-06 15:10:00,40.9,28.9,29.73,SE,126,16.0,30.0,62,0.00,,---,0.00,VWS V13.01,2013-03-06 20:10:00,
2013-03-06 15:15:00,40.8,29.2,29.74,East,94,20.0,28.0,63,0.00,,---,0.00,VWS V13.01,2013-03-06 20:15:00,
2013-03-06 15:20:00,40.8,29.6,29.74,East,84,16.0,28.0,64,0.00,,---,0.00,VWS V13.01,2013-03-06 20:20:00,
2013-03-06 15:25:00,40.8,29.6,29.74,East,80,7.0,28.0,64,0.00,,---,0.00,VWS V13.01,2013-03-06 20:25:00,
2013-03-06 15:30:00,40.9,29.7,29.75,East,96,12.0,21.0,64,0.00,,---,0.00,VWS V13.01,2013-03-06 20:30:00,
2013-03-06 15:35:00,40.9,30.1,29.75,ENE,74,2.0,21.0,65,0.00,,---,0.00,VWS V13.01,2013-03-06 20:35:00,
2013-03-06 15:40:00,40.8,30.0,29.75,ENE,58,15.0,21.0,65,0.00,,---,0.00,VWS V13.01,2013-03-06 20:40:00,
2013-03-06 15:45:00,40.3,31.0,29.75,East,98,11.0,16.0,69,0.00,,---,0.00,VWS V13.01,2013-03-06 20:45:00,
2013-03-06 15:50:00,39.5,31.9,29.75,ENE,69,10.0,20.0,74,0.00,,---,0.00,VWS V13.01,2013-03-06 20:50:00,
2013-03-06 15:55:00,38.8,32.5,29.75,ENE,59,13.0,20.0,78,0.00,,---,0.00,VWS V13.01,2013-03-06 20:55:00,
2013-03-06 16:00:00,37.9,32.9,29.77,NE,49,11.0,18.0,82,0.00,,---,0.00,VWS V13.01,2013-03-06 21:00:00,
2013-03-06 16:05:00,37.8,33.1,29.77,ENE,63,10.0,18.0,83,0.00,,---,0.00,VWS V13.01,2013-03-06 21:05:00,
2013-03-06 16:10:00,37.8,33.4,29.77,ENE,74,5.0,18.0,84,0.00,,---,0.00,VWS V13.01,2013-03-06 21:10:00,
2013-03-06 16:15:00,37.8,33.4,29.77,East,87,18.0,18.0,84,0.00,,---,0.00,VWS V13.01,2013-03-06 21:15:00,
2013-03-06 16:20:00,37.9,33.2,29.77,East,83,5.0,20.0,83,0.00,,---,0.00,VWS V13.01,2013-03-06 21:20:00,
2013-03-06 16:25:00,37.9,32.9,29.77,NE,48,10.0,20.0,82,0.00,,---,0.00,VWS V13.01,2013-03-06 21:25:00,
2013-03-06 16:30:00,38.2,32.0,29.77,NE,40,6.0,19.0,78,0.00,,---,0.00,VWS V13.01,2013-03-06 21:30:00,
2013-03-06 16:35:00,38.6,31.4,29.77,NE,48,13.0,19.0,75,0.00,,---,0.00,VWS V13.01,2013-03-06 21:35:00,
2013-03-06 16:40:00,39.1,30.9,29.77,ENE,73,10.0,22.0,72,0.00,,---,0.00,VWS V13.01,2013-03-06 21:40:00,
2013-03-06 16:45:00,39.1,30.9,29.77,ENE,64,8.0,15.0,72,0.00,,---,0.00,VWS V13.01,2013-03-06 21:45:00,
2013-03-06 16:50:00,39.1,30.9,29.77,East,88,7.0,18.0,72,0.00,,---,0.00,VWS V13.01,2013-03-06 21:50:00,
2013-03-06 16:55:00,39.1,30.2,29.77,NE,42,4.0,19.0,70,0.00,,---,0.00,VWS V13.01,2013-03-06 21:55:00,
2013-03-06 17:00:00,38.9,30.0,29.78,NE,47,11.0,18.0,70,0.00,,---,0.00,VWS V13.01,2013-03-06 22:00:00,
2013-03-06 17:05:00,39.1,30.2,29.78,ENE,76,13.0,21.0,70,0.00,,---,0.00,VWS V13.01,2013-03-06 22:05:00,
2013-03-06 17:10:00,38.9,30.3,29.78,ENE,57,8.0,21.0,71,0.00,,---,0.00,VWS V13.01,2013-03-06 22:10:00,
2013-03-06 17:15:00,38.9,29.6,29.78,ENE,64,12.0,15.0,69,0.00,,---,0.00,VWS V13.01,2013-03-06 22:15:00,
2013-03-06 17:20:00,39.1,29.8,29.78,NNE,17,6.0,17.0,69,0.00,,---,0.00,VWS V13.01,2013-03-06 22:20:00,
2013-03-06 17:25:00,39.3,29.3,29.78,NE,35,9.0,17.0,67,0.00,,---,0.00,VWS V13.01,2013-03-06 22:25:00,
2013-03-06 17:30:00,39.6,28.8,29.78,ENE,59,6.0,18.0,65,0.00,,---,0.00,VWS V13.01,2013-03-06 22:30:00,
2013-03-06 17:35:00,39.9,29.1,29.78,ENE,63,12.0,18.0,65,0.00,,---,0.00,VWS V13.01,2013-03-06 22:35:00,
2013-03-06 17:40:00,40.1,28.5,29.78,NNE,24,7.0,18.0,63,0.00,,---,0.00,VWS V13.01,2013-03-06 22:40:00,
2013-03-06 17:45:00,40.2,28.2,29.78,ENE,68,12.0,23.0,62,0.00,,---,0.00,VWS V13.01,2013-03-06 22:45:00,
2013-03-06 17:50:00,40.2,28.2,29.78,East,83,11.0,23.0,62,0.00,,---,0.00,VWS V13.01,2013-03-06 22:50:00,
2013-03-06 17:55:00,40.2,28.2,29.78,ENE,74,10.0,23.0,62,0.00,,---,0.00,VWS V13.01,2013-03-06 22:55:00,
2013-03-06 18:00:00,40.2,28.2,29.78,ENE,73,6.0,14.0,62,0.00,,---,0.00,VWS V13.01,2013-03-06 23:00:00,
2013-03-06 18:05:00,40.3,27.9,29.78,ENE,72,14.0,20.0,61,0.00,,---,0.00,VWS V13.01,2013-03-06 23:05:00,
2013-03-06 18:10:00,40.3,27.9,29.78,NE,55,7.0,20.0,61,0.00,,---,0.00,VWS V13.01,2013-03-06 23:10:00,
2013-03-06 18:15:00,40.3,27.9,29.78,NE,50,8.0,15.0,61,0.00,,---,0.00,VWS V13.01,2013-03-06 23:15:00,
2013-03-06 18:20:00,40.5,27.7,29.78,ENE,62,10.0,25.0,60,0.00,,---,0.00,VWS V13.01,2013-03-06 23:20:00,
2013-03-06 18:25:00,40.3,27.5,29.78,NE,47,11.0,25.0,60,0.00,,---,0.00,VWS V13.01,2013-03-06 23:25:00,
2013-03-06 18:30:00,40.3,27.5,29.79,East,82,12.0,20.0,60,0.00,,---,0.00,VWS V13.01,2013-03-06 23:30:00,
2013-03-06 18:35:00,40.3,27.9,29.79,ENE,64,10.0,20.0,61,0.00,,---,0.00,VWS V13.01,2013-03-06 23:35:00,
2013-03-06 18:40:00,40.2,27.8,29.79,ENE,57,19.0,20.0,61,0.00,,---,0.00,VWS V13.01,2013-03-06 23:40:00,
2013-03-06 18:45:00,40.3,27.5,29.81,NE,53,6.0,16.0,60,0.00,,---,0.00,VWS V13.01,2013-03-06 23:45:00,
2013-03-06 18:50:00,40.3,27.9,29.81,NE,53,9.0,17.0,61,0.00,,---,0.00,VWS V13.01,2013-03-06 23:50:00,
2013-03-06 18:55:00,40.3,27.5,29.81,NE,42,6.0,17.0,60,0.00,,---,0.00,VWS V13.01,2013-03-06 23:55:00,
2013-03-06 19:00:00,40.3,27.9,29.82,ENE,58,4.0,12.0,61,0.00,,---,0.00,VWS V13.01,2013-03-07 00:00:00,
2013-03-06 19:05:00,40.3,27.9,29.82,ENE,64,7.0,15.0,61,0.00,,---,0.00,VWS V13.01,2013-03-07 00:05:00,
2013-03-06 19:10:00,40.3,28.3,29.82,NE,46,11.0,19.0,62,0.00,,---,0.00,VWS V13.01,2013-03-07 00:10:00,
2013-03-06 19:15:00,40.1,28.1,29.82,NE,41,6.0,17.0,62,0.00,,---,0.00,VWS V13.01,2013-03-07 00:15:00,
2013-03-06 19:20:00,40.1,28.5,29.82,NNE,28,13.0,22.0,63,0.00,,---,0.00,VWS V13.01,2013-03-07 00:20:00,
2013-03-06 19:25:00,39.9,28.3,29.82,East,80,9.0,22.0,63,0.00,,---,0.00,VWS V13.01,2013-03-07 00:25:00,
2013-03-06 19:30:00,39.9,28.3,29.82,NE,51,7.0,18.0,63,0.00,,---,0.00,VWS V13.01,2013-03-07 00:30:00,
2013-03-06 19:35:00,39.9,28.3,29.82,NE,53,8.0,18.0,63,0.00,,---,0.00,VWS V13.01,2013-03-07 00:35:00,
2013-03-06 19:40:00,39.9,28.0,29.82,ENE,73,7.0,20.0,62,0.00,,---,0.00,VWS V13.01,2013-03-07 00:40:00,
2013-03-06 19:45:00,39.8,28.2,29.83,East,80,12.0,18.0,63,0.00,,---,0.00,VWS V13.01,2013-03-07 00:45:00,
2013-03-06 19:50:00,39.6,28.1,29.83,NE,53,9.0,20.0,63,0.00,,---,0.00,VWS V13.01,2013-03-07 00:50:00,
2013-03-06 19:55:00,39.5,28.4,29.83,ENE,71,6.0,21.0,64,0.00,,---,0.00,VWS V13.01,2013-03-07 00:55:00,
2013-03-06 20:00:00,39.3,28.5,29.83,East,79,17.0,22.0,65,0.00,,---,0.00,VWS V13.01,2013-03-07 01:00:00,
2013-03-06 20:05:00,39.2,28.4,29.83,ENE,69,8.0,22.0,65,0.00,,---,0.00,VWS V13.01,2013-03-07 01:05:00,
2013-03-06 20:10:00,39.2,28.4,29.83,ENE,65,5.0,22.0,65,0.00,,---,0.00,VWS V13.01,2013-03-07 01:10:00,
2013-03-06 20:15:00,39.1,28.3,29.84,NNE,13,9.0,14.0,65,0.00,,---,0.00,VWS V13.01,2013-03-07 01:15:00,
2013-03-06 20:20:00,39.1,28.3,29.84,NE,55,9.0,26.0,65,0.00,,---,0.00,VWS V13.01,2013-03-07 01:20:00,
2013-03-06 20:25:00,39.1,28.3,29.84,ENE,77,12.0,26.0,65,0.00,,---,0.00,VWS V13.01,2013-03-07 01:25:00,
2013-03-06 20:30:00,38.9,28.1,29.84,East,83,3.0,15.0,65,0.00,,---,0.00,VWS V13.01,2013-03-07 01:30:00,
2013-03-06 20:35:00,38.9,28.1,29.84,NE,45,9.0,17.0,65,0.00,,---,0.00,VWS V13.01,2013-03-07 01:35:00,
2013-03-06 20:40:00,39.1,27.6,29.84,ENE,65,15.0,21.0,63,0.00,,---,0.00,VWS V13.01,2013-03-07 01:40:00,
2013-03-06 20:45:00,39.1,28.0,29.84,NE,55,15.0,21.0,64,0.00,,---,0.00,VWS V13.01,2013-03-07 01:45:00,
2013-03-06 20:50:00,38.8,28.1,29.84,NE,51,13.0,21.0,65,0.00,,---,0.00,VWS V13.01,2013-03-07 01:50:00,
2013-03-06 20:55:00,38.6,27.9,29.84,ENE,71,7.0,21.0,65,0.00,,---,0.00,VWS V13.01,2013-03-07 01:55:00,
2013-03-06 21:00:00,38.6,27.9,29.84,NE,53,13.0,16.0,65,0.00,,---,0.00,VWS V13.01,2013-03-07 02:00:00,
2013-03-06 21:05:00,38.6,27.9,29.84,North,9,14.0,19.0,65,0.00,,---,0.00,VWS V13.01,2013-03-07 02:05:00,
2013-03-06 21:10:00,38.5,27.8,29.84,ENE,59,18.0,23.0,65,0.00,,---,0.00,VWS V13.01,2013-03-07 02:10:00,
2013-03-06 21:15:00,38.3,28.0,29.85,ENE,69,11.0,18.0,66,0.00,,---,0.00,VWS V13.01,2013-03-07 02:15:00,
2013-03-06 21:20:00,38.0,28.0,29.85,ENE,59,6.0,18.0,67,0.00,,---,0.00,VWS V13.01,2013-03-07 02:20:00,
2013-03-06 21:25:00,37.9,28.3,29.85,ENE,57,5.0,18.0,68,0.00,,---,0.00,VWS V13.01,2013-03-07 02:25:00,
2013-03-06 21:30:00,38.0,28.0,29.86,ENE,59,12.0,21.0,67,0.00,,---,0.00,VWS V13.01,2013-03-07 02:30:00,
2013-03-06 21:35:00,38.0,28.0,29.86,NE,52,6.0,21.0,67,0.00,,---,0.00,VWS V13.01,2013-03-07 02:35:00,
2013-03-06 21:40:00,37.9,28.3,29.86,NE,53,11.0,21.0,68,0.00,,---,0.00,VWS V13.01,2013-03-07 02:40:00,
2013-03-06 21:45:00,37.6,28.7,29.86,ENE,76,18.0,18.0,70,0.00,,---,0.00,VWS V13.01,2013-03-07 02:45:00,
2013-03-06 21:50:00,37.2,29.0,29.86,ENE,59,13.0,19.0,72,0.00,,---,0.00,VWS V13.01,2013-03-07 02:50:00,
2013-03-06 21:55:00,36.5,29.3,29.86,NE,38,9.0,22.0,75,0.00,,---,0.00,VWS V13.01,2013-03-07 02:55:00,
2013-03-06 22:00:00,35.8,29.9,29.86,NE,36,7.0,20.0,79,0.00,,---,0.00,VWS V13.01,2013-03-07 03:00:00,
2013-03-06 22:05:00,35.3,30.1,29.86,ENE,70,11.0,20.0,81,0.00,,---,0.00,VWS V13.01,2013-03-07 03:05:00,
2013-03-06 22:10:00,35.0,30.4,29.86,North,5,7.0,20.0,83,0.00,,---,0.00,VWS V13.01,2013-03-07 03:10:00,
2013-03-06 22:15:00,34.7,30.4,29.86,NE,39,3.0,12.0,84,0.00,,---,0.00,VWS V13.01,2013-03-07 03:15:00,
2013-03-06 22:20:00,34.6,30.6,29.86,NNE,30,6.0,12.0,85,0.00,,---,0.00,VWS V13.01,2013-03-07 03:20:00,
2013-03-06 22:25:00,34.6,30.6,29.86,NNE,28,3.0,12.0,85,0.00,,---,0.00,VWS V13.01,2013-03-07 03:25:00,
2013-03-06 22:30:00,34.6,30.9,29.87,NE,45,2.0,10.0,86,0.00,,---,0.00,VWS V13.01,2013-03-07 03:30:00,
2013-03-06 22:35:00,34.6,30.6,29.87,NNE,12,3.0,11.0,85,0.00,,---,0.00,VWS V13.01,2013-03-07 03:35:00,
2013-03-06 22:40:00,34.7,30.4,29.87,NNE,26,5.0,14.0,84,0.00,,---,0.00,VWS V13.01,2013-03-07 03:40:00,
2013-03-06 22:45:00,34.7,30.4,29.87,ENE,65,2.0,8.0,84,0.00,,---,0.00,VWS V13.01,2013-03-07 03:45:00,
2013-03-06 22:50:00,34.9,30.3,29.87,NE,49,5.0,12.0,83,0.00,,---,0.00,VWS V13.01,2013-03-07 03:50:00,
2013-03-06 22:55:00,35.0,30.1,29.87,North,5,7.0,13.0,82,0.00,,---,0.00,VWS V13.01,2013-03-07 03:55:00,
2013-03-06 23:00:00,35.2,30.0,29.87,NE,50,7.0,8.0,81,0.00,,---,0.00,VWS V13.01,2013-03-07 04:00:00,
2013-03-06 23:05:00,35.2,29.7,29.87,NE,43,3.0,8.0,80,0.00,,---,0.00,VWS V13.01,2013-03-07 04:05:00,
2013-03-06 23:10:00,35.3,29.1,29.87,NE,53,6.0,12.0,78,0.00,,---,0.00,VWS V13.01,2013-03-07 04:10:00,
2013-03-06 23:15:00,35.5,29.0,29.86,ENE,59,6.0,11.0,77,0.00,,---,0.00,VWS V13.01,2013-03-07 04:15:00,
2013-03-06 23:20:00,35.8,28.7,29.86,NE,44,10.0,11.0,75,0.00,,---,0.00,VWS V13.01,2013-03-07 04:20:00,
2013-03-06 23:25:00,35.9,28.1,29.86,NNE,25,5.0,15.0,73,0.00,,---,0.00,VWS V13.01,2013-03-07 04:25:00,
2013-03-06 23:30:00,36.2,27.4,29.86,NNE,27,6.0,18.0,70,0.00,,---,0.00,VWS V13.01,2013-03-07 04:30:00,
2013-03-06 23:35:00,36.5,27.3,29.86,NE,45,7.0,18.0,69,0.00,,---,0.00,VWS V13.01,2013-03-07 04:35:00,
2013-03-06 23:40:00,36.8,26.9,29.86,NE,55,9.0,18.0,67,0.00,,---,0.00,VWS V13.01,2013-03-07 04:40:00,
2013-03-06 23:45:00,37.0,26.7,29.86,NNE,32,6.0,11.0,66,0.00,,---,0.00,VWS V13.01,2013-03-07 04:45:00,
2013-03-06 23:50:00,37.0,26.7,29.86,NE,53,9.0,15.0,66,0.00,,---,0.00,VWS V13.01,2013-03-07 04:50:00,
2013-03-06 23:55:00,37.2,26.5,29.86,NE,46,7.0,15.0,65,0.00,,---,0.00,VWS V13.01,2013-03-07 04:55:00,